THOR ABLESTAR DEB, 967

Orbit data source: Space-Track

THOR ABLESTAR DEB, 967 is space debris in LEO originally from a launch on Sun, 13 Dec 1964 UTC launched from the Air Force Western Test Range (AFWTR). Debris objects in space refer to the collection of defunct objects orbiting the Earth. Examples of debris include non-operational satellites, rocket bodies, and fragments generated from explosions, collisions, or faulty payload assembly.

Loading next visibility...
Identifier
967, 1964-083F
Orbit
LEO
Last TLE update
1 day ago
Origin
Manufacturer
Unknown
Mission
Spacecraft
Bus & Motor
Unknown
Mass
Unknown
Launch date (UTC)
1964-12-13 (61 years ago)
Launch vehicle
Unknown
Launch site
Air Force Western Test Range (AFWTR)
Object type
Payload
Rocket body
Debris
Shape & HBR
Unknown
Radar Cross Section
Small (<0.1 m²)

Expand to show TLE details & history

TLE from 1 day ago
0 THOR ABLESTAR DEB
1 00967U 64083F   25172.50775802  .00000250  00000-0  28547-3 0  9990
2 00967  89.9494 175.5477 0023210  32.6113 133.5478 13.67218532  6697
Epoch: 2025-06-21T12:11Z
TLE epoch observation values (Epoch: 2025-06-21T12:11:10.292Z)
Latitude
13.61411°
Longitude
-97.20311°
Altitude
1,023.651 km
Speed
7.335 km/s
True Right ascension
23h 42m 08s
True Declination
13° 32' 19"
Sunlit
Object was in daylight at epoch
Visualization orbit readout
Latitude
-19.515°
Longitude
-97.17888°
Altitude
1,033.966 km
Speed
7.325 km/s
Apparent Right ascension
20h 54m 04s
Apparent Declination
-60° 11' 37"
Sunlit
Object is in daylight
Visualization observer readout
Local Sidereal Time
01:45:19
Azimuth
212.007° SW
Elevation
-26.368°
Doppler factor
1
Orbital elements
Apogee altitude
1,023.738 km
Perigee altitude
989.458 km
Semi-major axis
7,384.735 km
Eccentricity
0.00232
Inclination
89.9494°
RAAN
175.5477°
Arg. of periapsis
32.6113°
True anomaly
Unknown
Mean anomaly
133.5478°
Eccentric anomaly
Unknown
Mean motion
3.42012 °/min
Orbital period
105.26 mins
BSTAR
0.00028547
Loading maneuver chart data...
Loading SW <> Apogee altitude chart data...

THOR ABLESTAR DEB Visibility forecast

Observer location: undefined°, undefined°

Span
Click to sort rows by Start time (UTC) header in descending order
Start Az.
Max El. time (UTC)
Max El. Az.
Max El.
End time (UTC)
End Az.
11 mins2025-06-23 00:21:39.893Z169.31° S2025-06-23 00:27:39.893Z56.297° ENE43.94°2025-06-23 00:32:39.893Z1.9° NNE
4 mins2025-06-23 02:11:39.893Z266.628° W2025-06-23 02:13:39.893Z288.156° WNW14.45°2025-06-23 02:15:39.893Z308.5° NW
9 mins2025-06-23 11:24:39.893Z33.204° NE2025-06-23 11:28:39.893Z80.761° E24.706°2025-06-23 11:33:39.893Z136.822° SSE
10 mins2025-06-23 13:09:39.893Z342.742° N2025-06-23 13:13:39.893Z289.627° WNW34.725°2025-06-23 13:19:39.893Z210.964° SW
|